This demonstration page uses our WeatherBlox Daily Observations layout. Learn more.

Left ArrowRight Arrow

39.29038, -76.61219

Hourly Observations for November 25, 2018

Temp ( °F °C ) Dew Point ( °F °C ) Humidity (%) Winds ( mph kmh ) Pressure ( in mb ) Visibility ( mi km ) Precip ( " mm )
12:54 am 00:54 undefined 44 6.7 40 4.4 85 85 undefined N/A 29.74 1007 N/A 0.00 0.00
1:54 am 01:54 undefined 43 6.1 40 4.4 89 89 undefined N/A 29.78 1008 N/A 0.00 0.00
2:54 am 02:54 undefined 42 5.6 39 3.9 89 89 undefined N/A 29.79 1009 N/A 0.00 0.00
3:54 am 03:54 undefined 43 6.1 39 3.9 86 86 undefined N/A 29.80 1009 N/A 0.00 0.00
4:54 am 04:54 undefined 43 6.1 38 3.3 82 82 undefined N/A 29.82 1010 N/A 0.00 0.00
5:54 am 05:54 undefined 46 7.8 39 3.9 77 77 undefined N/A 29.83 1010 N/A 0.00 0.00
6:54 am 06:54 undefined 44 6.7 39 3.9 83 83 undefined N/A 29.87 1011 N/A 0.00 0.00
7:54 am 07:54 undefined 45 7.2 39 3.9 80 80 undefined N/A 29.88 1012 N/A 0.00 0.00
8:54 am 08:54 undefined 47 8.3 41 5 80 80 undefined N/A 29.90 1013 N/A 0.00 0.00
9:54 am 09:54 undefined 50 10 43 6.1 77 77 undefined N/A 29.94 1014 N/A 0.00 0.00
10:54 am 10:54 undefined 57 13.9 43 6.1 60 60 undefined N/A 29.96 1015 N/A 0.00 0.00
11:54 am 11:54 undefined 60 15.6 43 6.1 53 53 undefined N/A 29.94 1014 N/A 0.00 0.00
12:54 pm 12:54 undefined 61 16.1 40 4.4 46 46 undefined N/A 29.90 1012 N/A 0.00 0.00
1:54 pm 13:54 undefined 61 16.1 41 5 48 48 undefined N/A 29.88 1012 N/A 0.00 0.00
2:54 pm 14:54 undefined 61 16.1 40 4.4 46 46 undefined N/A 29.86 1011 N/A 0.00 0.00
3:54 pm 15:54 undefined 60 15.6 40 4.4 47 47 undefined N/A 29.89 1012 N/A 0.00 0.00
4:54 pm 16:54 undefined 58 14.4 41 5 53 53 undefined N/A 29.91 1013 N/A 0.00 0.00
5:54 pm 17:54 undefined 54 12.2 42 5.6 64 64 undefined N/A 29.91 1013 N/A 0.00 0.00
6:54 pm 18:54 undefined 52 11.1 41 5 66 66 undefined N/A 29.93 1013 N/A 0.00 0.00
7:54 pm 19:54 undefined 51 10.6 41 5 69 69 undefined N/A 29.93 1014 N/A 0.00 0.00
8:54 pm 20:54 undefined 50 10 41 5 71 71 undefined N/A 29.93 1014 N/A 0.00 0.00
9:54 pm 21:54 undefined 50 10 41 5 71 71 undefined N/A 29.92 1013 N/A 0.00 0.00
10:54 pm 22:54 undefined 50 10 41 5 71 71 undefined N/A 29.92 1013 N/A 0.00 0.00
11:54 pm 23:54 undefined 49 9.4 41 5 74 74 undefined N/A 29.92 1013 N/A 0.00 0.00

Powered by AerisWeather